Location: ??????
(41.3164°N, 22.6615°E)
Time: 09:02:06
(UTC+00:00)

Cosmos 1607 - Pass Details

Date: 16 October 2021
Orbit: 918 x 984 km, 65.0° (Epoch: 07 December)

Event Time Altitude Azimuth Distance (km) Brightness Sun altitude
Rises 17:42:00 0° 324° (NW) 3,651 7.6 -22.4°
Reaches altitude 10° 17:44:36 10° 321° (NW) 2,692 6.9 -22.8°
Maximum altitude 17:50:46 61° 243° (WSW) 1,063 4.3 -24.0°
Enters shadow 17:55:00 20° 169° (S) 1,996 5.4 -24.8°
